Time,TemperatureF,DewpointF,PressureIn,WindDirection,WindDirectionDegrees,WindSpeedMPH,WindSpeedGustMPH,Humidity,HourlyPrecipIn,Conditions,Clouds,dailyrainin,SoftwareType,DateUTC
2013-03-20 00:00:00,58.8,51.0,30.09,NNW,330,10.0,24.0,76,0.00,,,0.03,weatherlink.com 1.10,2013-03-20 05:00:00,
2013-03-20 00:15:00,55.8,50.0,30.06,ENE,68,14.0,22.0,82,0.00,,,0.03,weatherlink.com 1.10,2013-03-20 05:15:00,
2013-03-20 00:45:00,53.3,50.0,30.12,NNE,33,0.0,15.0,89,0.26,,,0.29,weatherlink.com 1.10,2013-03-20 05:45:00,
2013-03-20 01:00:00,53.2,51.0,30.08,East,95,4.0,9.0,91,0.27,,,0.30,weatherlink.com 1.10,2013-03-20 06:00:00,
2013-03-20 01:15:00,53.5,51.0,30.07,SE,125,3.0,8.0,92,0.28,,,0.01,weatherlink.com 1.10,2013-03-20 06:15:00,
2013-03-20 01:30:00,53.6,52.0,30.06,SE,124,6.0,8.0,93,0.27,,,0.01,weatherlink.com 1.10,2013-03-20 06:30:00,
2013-03-20 01:45:00,53.8,52.0,30.08,NE,52,3.0,8.0,93,0.02,,,0.01,weatherlink.com 1.10,2013-03-20 06:45:00,
2013-03-20 02:00:00,53.9,52.0,30.05,ENE,64,4.0,9.0,94,0.01,,,0.01,weatherlink.com 1.10,2013-03-20 07:00:00,
2013-03-20 02:15:00,53.7,52.0,30.08,NE,37,2.0,7.0,94,0.00,,,0.01,weatherlink.com 1.10,2013-03-20 07:15:00,
2013-03-20 02:30:00,53.7,52.0,30.09,NNW,337,6.0,9.0,94,0.00,,,0.01,weatherlink.com 1.10,2013-03-20 07:30:00,
2013-03-20 02:45:00,52.9,51.0,30.09,North,359,9.0,13.0,93,0.00,,,0.01,weatherlink.com 1.10,2013-03-20 07:45:00,
2013-03-20 03:00:00,52.1,50.0,30.13,NW,314,6.0,11.0,93,0.00,,,0.01,weatherlink.com 1.10,2013-03-20 08:00:00,
2013-03-20 03:15:00,51.9,50.0,30.14,NNW,347,3.0,7.0,93,0.00,,,0.01,weatherlink.com 1.10,2013-03-20 08:15:00,
2013-03-20 03:30:00,51.9,50.0,30.09,NNE,23,8.0,13.0,93,0.01,,,0.02,weatherlink.com 1.10,2013-03-20 08:30:00,
2013-03-20 03:45:00,51.8,50.0,30.11,North,6,8.0,10.0,93,0.01,,,0.02,weatherlink.com 1.10,2013-03-20 08:45:00,
2013-03-20 04:00:00,51.5,49.0,30.11,North,2,7.0,12.0,92,0.01,,,0.02,weatherlink.com 1.10,2013-03-20 09:00:00,
2013-03-20 04:15:00,51.1,49.0,30.11,North,10,4.0,11.0,91,0.01,,,0.02,weatherlink.com 1.10,2013-03-20 09:15:00,
2013-03-20 04:30:00,50.7,48.0,30.12,North,350,5.0,8.0,90,0.00,,,0.02,weatherlink.com 1.10,2013-03-20 09:30:00,
2013-03-20 04:45:00,50.6,48.0,30.12,North,6,5.0,9.0,90,0.00,,,0.02,weatherlink.com 1.10,2013-03-20 09:45:00,
2013-03-20 05:01:00,50.4,47.0,30.11,North,11,4.0,8.0,89,0.00,,,0.02,weatherlink.com 1.10,2013-03-20 10:01:00,
2013-03-20 05:15:00,49.9,47.0,30.11,NNE,33,6.0,8.0,89,0.00,,,0.02,weatherlink.com 1.10,2013-03-20 10:15:00,
2013-03-20 05:30:00,49.4,46.0,30.12,North,3,3.0,6.0,88,0.00,,,0.02,weatherlink.com 1.10,2013-03-20 10:30:00,
2013-03-20 05:46:00,48.8,45.0,30.14,North,358,4.0,6.0,88,0.00,,,0.02,weatherlink.com 1.10,2013-03-20 10:46:00,
2013-03-20 06:01:00,48.3,45.0,30.14,NNW,341,4.0,7.0,88,0.00,,,0.02,weatherlink.com 1.10,2013-03-20 11:01:00,
2013-03-20 06:16:00,47.6,45.0,30.16,NNW,346,4.0,6.0,89,0.00,,,0.02,weatherlink.com 1.10,2013-03-20 11:16:00,
2013-03-20 06:31:00,47.2,44.0,30.17,NW,324,1.0,6.0,89,0.00,,,0.02,weatherlink.com 1.10,2013-03-20 11:31:00,
2013-03-20 06:46:00,46.7,44.0,30.18,NNW,335,7.0,7.0,89,0.00,,,0.02,weatherlink.com 1.10,2013-03-20 11:46:00,
2013-03-20 07:01:00,46.5,43.0,30.19,North,349,2.0,5.0,88,0.00,,,0.02,weatherlink.com 1.10,2013-03-20 12:01:00,
2013-03-20 07:31:00,46.4,42.0,30.21,North,353,3.0,6.0,85,0.00,,,0.02,weatherlink.com 1.10,2013-03-20 12:31:00,
2013-03-20 08:01:00,46.4,42.0,30.22,North,1,5.0,7.0,84,0.00,,,0.02,weatherlink.com 1.10,2013-03-20 13:01:00,
2013-03-20 08:16:00,46.9,42.0,30.23,North,2,4.0,5.0,84,0.00,,,0.02,weatherlink.com 1.10,2013-03-20 13:16:00,
2013-03-20 08:31:00,47.9,43.0,30.24,North,4,5.0,8.0,82,0.00,,,0.02,weatherlink.com 1.10,2013-03-20 13:31:00,
2013-03-20 08:46:00,48.8,43.0,30.24,North,359,4.0,10.0,80,0.00,,,0.02,weatherlink.com 1.10,2013-03-20 13:46:00,
2013-03-20 09:01:00,49.9,44.0,30.25,NNE,33,5.0,10.0,79,0.00,,,0.02,weatherlink.com 1.10,2013-03-20 14:01:00,
2013-03-20 09:16:00,51.5,44.0,30.25,NNE,23,4.0,10.0,76,0.00,,,0.02,weatherlink.com 1.10,2013-03-20 14:16:00,
2013-03-20 09:31:00,52.9,44.0,30.25,East,91,3.0,10.0,72,0.00,,,0.02,weatherlink.com 1.10,2013-03-20 14:31:00,
2013-03-20 09:46:00,54.4,45.0,30.26,NE,50,9.0,10.0,70,0.00,,,0.02,weatherlink.com 1.10,2013-03-20 14:46:00,
2013-03-20 10:01:00,55.2,45.0,30.25,North,7,4.0,11.0,68,0.00,,,0.02,weatherlink.com 1.10,2013-03-20 15:01:00,
2013-03-20 10:16:00,56.0,44.0,30.26,NNE,23,8.0,12.0,65,0.00,,,0.02,weatherlink.com 1.10,2013-03-20 15:16:00,
2013-03-20 10:31:00,57.5,44.0,30.26,ENE,61,3.0,11.0,62,0.00,,,0.02,weatherlink.com 1.10,2013-03-20 15:31:00,
2013-03-20 10:46:00,58.5,45.0,30.26,NE,47,2.0,11.0,61,0.00,,,0.02,weatherlink.com 1.10,2013-03-20 15:46:00,
2013-03-20 11:01:00,59.9,45.0,30.26,East,83,5.0,11.0,58,0.00,,,0.02,weatherlink.com 1.10,2013-03-20 16:01:00,
2013-03-20 11:17:00,61.1,45.0,30.27,ENE,58,8.0,11.0,56,0.00,,,0.02,weatherlink.com 1.10,2013-03-20 16:17:00,
2013-03-20 11:33:00,62.2,45.0,30.27,North,359,7.0,11.0,53,0.00,,,0.02,weatherlink.com 1.10,2013-03-20 16:33:00,
2013-03-20 11:47:00,63.2,44.0,30.26,NE,45,5.0,12.0,50,0.00,,,0.02,weatherlink.com 1.10,2013-03-20 16:47:00,
2013-03-20 12:02:00,64.3,44.0,30.26,NE,47,4.0,16.0,48,0.00,,,0.02,weatherlink.com 1.10,2013-03-20 17:02:00,
2013-03-20 12:17:00,65.5,44.0,30.26,East,80,3.0,18.0,46,0.00,,,0.02,weatherlink.com 1.10,2013-03-20 17:17:00,
2013-03-20 12:32:00,66.4,45.0,30.25,ENE,59,2.0,16.0,47,0.00,,,0.02,weatherlink.com 1.10,2013-03-20 17:32:00,
2013-03-20 12:47:00,67.2,41.0,30.24,NE,49,12.0,15.0,39,0.00,,,0.02,weatherlink.com 1.10,2013-03-20 17:47:00,
2013-03-20 13:02:00,67.5,41.0,30.23,ENE,74,8.0,15.0,38,0.00,,,0.02,weatherlink.com 1.10,2013-03-20 18:02:00,
2013-03-20 13:17:00,68.3,41.0,30.22,East,92,11.0,17.0,37,0.00,,,0.02,weatherlink.com 1.10,2013-03-20 18:17:00,
2013-03-20 13:32:00,68.8,40.0,30.21,NE,51,9.0,19.0,35,0.00,,,0.02,weatherlink.com 1.10,2013-03-20 18:32:00,
2013-03-20 13:47:00,69.2,40.0,30.21,East,93,12.0,18.0,35,0.00,,,0.02,weatherlink.com 1.10,2013-03-20 18:47:00,
2013-03-20 14:02:00,69.5,42.0,30.20,SE,128,2.0,14.0,37,0.00,,,0.02,weatherlink.com 1.10,2013-03-20 19:02:00,
2013-03-20 14:17:00,69.5,39.0,30.19,East,92,11.0,17.0,33,0.00,,,0.02,weatherlink.com 1.10,2013-03-20 19:17:00,
2013-03-20 14:32:00,70.7,38.0,30.18,ENE,77,8.0,13.0,30,0.00,,,0.02,weatherlink.com 1.10,2013-03-20 19:32:00,
2013-03-20 14:47:00,70.2,40.0,30.18,East,95,2.0,14.0,33,0.00,,,0.02,weatherlink.com 1.10,2013-03-20 19:47:00,
2013-03-20 15:02:00,70.1,39.0,30.17,NE,48,6.0,13.0,32,0.00,,,0.02,weatherlink.com 1.10,2013-03-20 20:02:00,
2013-03-20 15:17:00,69.9,36.0,30.16,NNE,28,9.0,14.0,29,0.00,,,0.02,weatherlink.com 1.10,2013-03-20 20:17:00,
2013-03-20 15:32:00,69.9,35.0,30.16,ESE,107,2.0,15.0,28,0.00,,,0.02,weatherlink.com 1.10,2013-03-20 20:32:00,
2013-03-20 15:47:00,70.7,37.0,30.15,East,94,1.0,12.0,29,0.00,,,0.02,weatherlink.com 1.10,2013-03-20 20:47:00,
2013-03-20 16:02:00,70.0,37.0,30.14,NE,42,2.0,12.0,30,0.00,,,0.02,weatherlink.com 1.10,2013-03-20 21:02:00,
2013-03-20 16:17:00,69.7,37.0,30.13,SE,124,2.0,13.0,30,0.00,,,0.02,weatherlink.com 1.10,2013-03-20 21:17:00,
2013-03-20 16:32:00,69.6,37.0,30.12,SE,125,7.0,9.0,30,0.00,,,0.02,weatherlink.com 1.10,2013-03-20 21:32:00,
2013-03-20 16:47:00,69.5,41.0,30.12,East,90,4.0,12.0,35,0.00,,,0.02,weatherlink.com 1.10,2013-03-20 21:47:00,
2013-03-20 17:02:00,68.8,37.0,30.11,ENE,67,9.0,13.0,31,0.00,,,0.02,weatherlink.com 1.10,2013-03-20 22:02:00,
2013-03-20 17:17:00,68.7,38.0,30.10,ESE,111,6.0,11.0,33,0.00,,,0.02,weatherlink.com 1.10,2013-03-20 22:17:00,
2013-03-20 17:32:00,68.8,38.0,30.09,ESE,105,3.0,15.0,33,0.00,,,0.02,weatherlink.com 1.10,2013-03-20 22:32:00,
2013-03-20 17:47:00,68.4,38.0,30.09,NE,50,7.0,10.0,33,0.00,,,0.02,weatherlink.com 1.10,2013-03-20 22:47:00,
2013-03-20 18:02:00,67.9,38.0,30.09,SE,127,5.0,8.0,33,0.00,,,0.02,weatherlink.com 1.10,2013-03-20 23:02:00,
2013-03-20 18:17:00,67.7,38.0,30.09,ENE,76,4.0,12.0,34,0.00,,,0.02,weatherlink.com 1.10,2013-03-20 23:17:00,
2013-03-20 18:32:00,66.7,36.0,30.08,SE,126,7.0,13.0,32,0.00,,,0.02,weatherlink.com 1.10,2013-03-20 23:32:00,
2013-03-20 18:47:00,65.5,35.0,30.08,ESE,110,6.0,11.0,32,0.00,,,0.02,weatherlink.com 1.10,2013-03-20 23:47:00,
2013-03-20 19:02:00,64.3,36.0,30.09,ESE,102,5.0,8.0,35,0.00,,,0.02,weatherlink.com 1.10,2013-03-21 00:02:00,
2013-03-20 19:17:00,63.7,36.0,30.08,ESE,121,5.0,8.0,36,0.00,,,0.02,weatherlink.com 1.10,2013-03-21 00:17:00,
2013-03-20 19:32:00,62.6,36.0,30.07,SE,127,5.0,8.0,38,0.00,,,0.02,weatherlink.com 1.10,2013-03-21 00:32:00,
2013-03-20 19:47:00,60.1,38.0,30.07,ESE,121,3.0,6.0,44,0.00,,,0.02,weatherlink.com 1.10,2013-03-21 00:47:00,
2013-03-20 20:02:00,58.9,38.0,30.08,ESE,120,2.0,6.0,46,0.00,,,0.02,weatherlink.com 1.10,2013-03-21 01:02:00,
2013-03-20 20:17:00,59.6,38.0,30.07,SE,131,3.0,6.0,45,0.00,,,0.02,weatherlink.com 1.10,2013-03-21 01:17:00,
2013-03-20 20:32:00,58.9,37.0,30.07,SE,134,4.0,5.0,45,0.00,,,0.02,weatherlink.com 1.10,2013-03-21 01:32:00,
2013-03-20 20:47:00,58.8,38.0,30.06,SSE,148,3.0,5.0,46,0.00,,,0.02,weatherlink.com 1.10,2013-03-21 01:47:00,
2013-03-20 21:02:00,58.4,38.0,30.07,SSE,150,2.0,5.0,47,0.00,,,0.02,weatherlink.com 1.10,2013-03-21 02:02:00,
2013-03-20 21:17:00,58.0,38.0,30.07,SE,141,2.0,7.0,48,0.00,,,0.02,weatherlink.com 1.10,2013-03-21 02:17:00,
2013-03-20 21:32:00,56.8,40.0,30.06,SE,141,1.0,4.0,54,0.00,,,0.02,weatherlink.com 1.10,2013-03-21 02:32:00,
2013-03-20 21:47:00,55.5,39.0,30.06,SE,141,2.0,3.0,55,0.00,,,0.02,weatherlink.com 1.10,2013-03-21 02:47:00,
2013-03-20 22:02:00,55.8,38.0,30.06,SE,141,3.0,4.0,51,0.00,,,0.02,weatherlink.com 1.10,2013-03-21 03:02:00,
2013-03-20 22:17:00,55.2,39.0,30.05,SE,143,3.0,4.0,55,0.00,,,0.02,weatherlink.com 1.10,2013-03-21 03:17:00,
2013-03-20 22:32:00,54.1,39.0,30.05,SE,143,3.0,4.0,58,0.00,,,0.02,weatherlink.com 1.10,2013-03-21 03:32:00,
2013-03-20 22:47:00,53.3,39.0,30.05,SE,143,3.0,3.0,59,0.00,,,0.02,weatherlink.com 1.10,2013-03-21 03:47:00,
2013-03-20 23:02:00,53.6,39.0,30.05,SE,143,2.0,4.0,58,0.00,,,0.02,weatherlink.com 1.10,2013-03-21 04:02:00,
2013-03-20 23:18:00,53.9,38.0,30.04,SSE,147,4.0,4.0,56,0.00,,,0.02,weatherlink.com 1.10,2013-03-21 04:18:00,
2013-03-20 23:32:00,53.6,38.0,30.04,SE,143,3.0,5.0,57,0.00,,,0.02,weatherlink.com 1.10,2013-03-21 04:32:00,
2013-03-20 23:47:00,53.2,39.0,30.03,SE,142,1.0,4.0,58,0.00,,,0.02,weatherlink.com 1.10,2013-03-21 04:47:00,